Regional Weather Roundup
Issued by NWS

Home | Current Version | Previous Version | Text Only | Print | Product List | Glossary Off
Versions: 1 2 3 4 5 6 7 8 9 10 11 12 13 14 15 16 17 18 19 20 21 22 23 24 25 26 27 28 29 30 31 32 33 34 35 36 37 38 39 40 41 42 43 44 45 46 47 48 49 50

000
ASUS45 KABQ 301901
RWRNM
WEATHER ROUNDUP FOR NEW MEXICO
NATIONAL WEATHER SERVICE ALBUQUERQUE NM
1200 PM MST FRI JAN 30 2015

NOTE: "FAIR" MEANS FEW OR NO CLOUDS BELOW 12,000 FEET AGL WITH NO
       SIGNIFICANT WEATHER OR OBSTRUCTIONS TO VISION.

      THIS PRODUCT IS RELEASED AS TWO VERSIONS.  ONE VERSION NEAR
      THE TOP OF THE HOUR CONTAINING PRELIMINARY DATA FROM ALBUQUERQUE
      AND OTHER STATIONS.  A FINAL VERSION WITH ADDITIONAL DATA IS
      ISSUED ABOUT 10 MINUTES AFTER THE HOUR.

NMZ501-503-504-510>518-302000-
NORTHWEST PLATEAU/NORTHCENTRAL MOUNTAINS

CITY           SKY/WX    TMP DP  RH WIND       PRES   REMARKS
FARMINGTON     LGT SNOW  32  31  96 E8        30.15F VSB 3/4 WCI  25
SANTA FE       LGT SNOW  31  28  89 S7        30.24F VSB 3/4 WCI  24
TAOS           CLOUDY    28  25  86 CALM      30.25F VSB 3/4

$$
NMZ402-403-502-505>509-302000-
WESTCENTRAL MOUNTAINS/SOUTHWEST MOUNTAINS

CITY           SKY/WX    TMP DP  RH WIND       PRES   REMARKS
GALLUP         LGT SNOW  33  31  92 NE5       30.11F VSB 3/4 WCI  29
SILVER CITY    LGT RAIN  39  39 100 E15       30.16F WCI  31

$$
NMZ407-409-411-412-302000-
SOUTHERN DESERTS

CITY           SKY/WX    TMP DP  RH WIND       PRES   REMARKS
DEMING         CLOUDY    43  39  86 E20       30.16F
HOLLOMAN AFB   PTSUNNY   45  41  87 NW3       30.19F
ALAMOGORDO     CLOUDY    43  41  93 N6        30.20F
T OR C         LGT RAIN  39  38  96 NE7       30.18F WCI  34

$$
NMZ519>523-302000-
CENTRAL VALLEYS/CENTRAL HIGHLANDS

CITY           SKY/WX    TMP DP  RH WIND       PRES   REMARKS
ALBUQUERQUE    FLURRIES  35  31  85 NE6       30.23F WCI  30
DOUBLE EAGLE   LGT SNOW  30  30 100 N9        30.23F WCI  22
MORIARTY ARPT  MIX PCPN  31  28  90 SE10      30.26F WCI  22
CLINES CORNERS CLOUDY    27  24  89 E14       30.22F FOG     WCI  16
BELEN          CLOUDY    33  33 100 NW6       30.22F WCI  28
SOCORRO        NOT AVBL

$$
NMZ524>526-539-540-302000-
SOUTHCENTRAL MOUNTAINS

CITY           SKY/WX    TMP DP  RH WIND       PRES   REMARKS
RUIDOSO        NOT AVBL

$$
NMZ527>531-302000-
NORTHEAST HIGHLANDS/NORTHEAST PLAINS

CITY           SKY/WX    TMP DP  RH WIND       PRES   REMARKS
LAS VEGAS      LGT SNOW  28  26  92 S7        30.26F VSB 3/4 WCI  21
RATON          SNOW      29  27  92 SW10      30.24F VSB 1/2 WCI  20
CLAYTON        CLOUDY    40  27  59 S21       30.27F WCI  30

$$
NMZ532>537-302000-
EASTCENTRAL PLAINS

CITY           SKY/WX    TMP DP  RH WIND       PRES   REMARKS
TUCUMCARI      LGT SNOW  36  34  92 S8        30.33F FOG     WCI  30
CANNON AFB     NOT AVBL
CLOVIS AIRPORT CLOUDY    37  27  65 S12       30.33F WCI  30

$$
NMZ028-029-538-302000-
SOUTHEAST PLAINS

CITY           SKY/WX    TMP DP  RH WIND       PRES   REMARKS
ROSWELL        CLOUDY    41  32  70 SE10      30.33F
ARTESIA        CLOUDY    41  34  75 SE9       30.34F
CARLSBAD       CLOUDY    42  33  70 E6        30.32F
HOBBS          CLOUDY    39  32  75 E9        30.33F WCI  33


$$


USA.gov is the U.S. government's official web portal to all federal, state and local government web resources and services.